Regional Weather Roundup
Issued by NWS

Home | Current Version | Previous Version | Graphics & Text | Print | Product List | Glossary On
Versions: 1 2 3 4 5 6 7 8 9 10 11 12 13 14 15 16 17 18 19 20 21 22 23 24 25 26 27 28 29 30 31 32 33 34 35 36 37 38 39 40 41 42 43 44 45 46 47 48 49 50
000
ASUS43 KLSX 240107
RWRMO
STLRWRMO ALL

WEATHER SUMMARY FOR MISSOURI
NATIONAL WEATHER SERVICE SPRINGFIELD MO
800 PM CDT TUE MAY 23 2017

NOTE: "FAIR" INDICATES FEW OR NO CLOUDS BELOW 12,000 FEET WITH NO
       SIGNIFICANT WEATHER AND/OR OBSTRUCTIONS TO VISIBILITY.
       CURRENT SKY AND/OR WEATHER CONDITIONS ARE NOT AVAILABLE FOR
       CHILLICOTHE AND FARMINGTON.

MOZ001>031-035>038-043-044-053-054-240200-
...NORTHERN AND WESTERN MISSOURI...

CITY           SKY/WX    TMP DP  RH WIND       PRES   REMARKS
KANSAS CTY INT CLOUDY    57  49  74 NW8       29.80S
KANSAS C DTWN  CLOUDY    56  52  86 SW5       29.80S
LEE`S SUMMIT   LGT RAIN  54  51  90 W9        29.81R
ST JOSEPH      MOCLDY    58  48  69 NW9       29.80S
CHILLICOTHE      N/A     60  47  61 VRB5      29.78S
KIRKSVILLE     MOCLDY    58  46  64 NW8       29.76R

$$
MOZ066>068-077>081-088>096-101>105-240200-
...SOUTHWEST MISSOURI...

CITY           SKY/WX    TMP DP  RH WIND       PRES   REMARKS
SPRINGFIELD    CLEAR     62  48  60 NW9       29.75F
JOPLIN         PTCLDY    63  50  62 NW7       29.79R
BRANSON        MOCLDY    59  54  82 CALM      29.77F

$$
MOZ032>034-039>042-045>050-055>058-069>072-240200-
...CENTRAL MISSOURI...

CITY           SKY/WX    TMP DP  RH WIND       PRES   REMARKS
COLUMBIA       PTCLDY    61  51  70 W7        29.74S
JEFFERSON CITY CLEAR     65  49  56 NW7       29.73F
SEDALIA        CLOUDY    62  49  62 NW7       29.77S
WHITEMAN AFB   MOCLDY    60  48  64 NW9       29.76S
WARRENSBURG    MOCLDY    59  46  63 NW5       29.78R

$$
MOZ051-052-059>065-240200-
...EAST CENTRAL MISSOURI...

CITY           SKY/WX    TMP DP  RH WIND       PRES   REMARKS
ST LOUIS INTL  CLOUDY    63  55  75 NW3       29.71S
SPIRIT OF STL  CLOUDY    62  58  86 CALM      29.70F
ST CHARLES     CLOUDY    62  58  86 NW6       29.70S

$$
MOZ072>076-082>087-097>100-106>115-240200-
...SOUTH CENTRAL AND SOUTHEAST MISSOURI...

CITY           SKY/WX    TMP DP  RH WIND       PRES   REMARKS
CAPE GIRARDEAU CLOUDY    66  59  78 NW7       29.66F
FARMINGTON     CLOUDY    61  54  77 NW8       29.72S
POPLAR BLUFF   CLOUDY    61  60  97 CALM      29.68S
WEST PLAINS    CLOUDY    62  53  72 N6        29.76R

$$




USA.gov is the U.S. government's official web portal to all federal, state and local government web resources and services.